STARLINK-35253, 65596

Orbit data source: Space-Track

STARLINK-35253, 65596 is a payload satellite owned by SpaceX/Seattle (US) in SSO that was launched on Sat, 13 Sep 2025 UTC via an FALCON 9 launch vehicle from the Air Force Eastern Test Range (AFETR). Payload-class satellites include a variety of spacecraft equipped with specific instruments for various scientific and technological missions. These include communications satellites like Starlink; space stations such as the ISS; scientific satellites like the Hubble; Earth observation satellites from companies like Planet Labs, Umbra, and HawkEye 360; GPS; miniature CubeSats for education and research; and military/defense satellites.

Loading next visibility...
Identifier
65596, 2025-207E
Orbit
SSO
Country
Flag of USUS
Related business
Manufacturer
SpaceX/Seattle
Mission
Operational Commercial Communications
Bus & Motor
STARLINK V2MO, Unknown motor
Mass
575 kg wet, ~530 kg dry
Launch date (UTC)
2025-09-13 (9 months ago)
Launch vehicle
FALCON 9
Launch site
Air Force Eastern Test Range (AFETR)
Object type
Payload
Rocket body
Debris
Shape & HBR
Box + 2 Pan, 17.7 m
Radar Cross Section
36.964 m², Large (>1 m²)

Expand to show TLE details & history
Last TLE update: 23 hours ago

TLE from 23 hours ago
0 STARLINK-35253
1 65596U 25207E   26166.15063014  .00005126  00000-0  35887-3 0  9996
2 65596  97.3577 233.7725 0000676  89.7403 270.3902 15.05662331 42719
Epoch: 2026-06-15T03:36Z
TLE epoch observation values (Epoch: 2026-06-15T03:36:54.444Z)
Latitude
0.00001°
Longitude
-83.89549°
Altitude
552.542 km
Speed
7.586 km/s
True Right ascension
15h 35m 05s
True Declination
0° 00' 00"
Sunlit
Object was in full shadow at epoch
Visualization orbit readout
Latitude
Unknown
Longitude
Unknown
Altitude
Unknown
Speed
Unknown
Apparent Right ascension
Unknown
Apparent Declination
Unknown
Sunlit
N/A
Visualization observer readout
Local Sidereal Time
13:38:00
Azimuth
Unknown
Elevation
Unknown
Doppler factor
Unknown
Orbital elements
Apogee altitude
546.924 km
Perigee altitude
545.988 km
Semi-major axis
6,924.593 km
Eccentricity
0.00007
Inclination
97.3577°
RAAN
233.7725°
Arg. of periapsis
89.7403°
True anomaly
270.38245°
Mean anomaly
270.3902°
Eccentric anomaly
270.38633°
Mean motion
3.76662 °/min
Orbital period
95.58 mins
BSTAR
0.00035887
Loading maneuver chart data...
Computing Atmospheric mass density...
Loading historical data...
Loading historical data...
Loading historical data...
Loading historical data...
Loading historical data...
Loading historical data...
Loading historical data...

Documentation

Showing up to 5 results
|